START_TIME,STEP,MOV.,M6,t_acc.,M7,t_acc.,M19,t_acc.,H36,t_acc.
1979-07-06 00:00:27.810 ,0,0,2.,12.0,0.,12.0,0.,12.0,1.,12.0
1979-07-06 00:00:39.810 ,0,0,0.,12.0,0.,12.0,0.,12.0,0.,12.0
1979-07-06 00:00:51.810 ,1,1,0.,12.0,0.,12.0,0.,12.0,1.,12.0
1979-07-06 00:01:03.810 ,1,1,0.,12.0,0.,12.0,0.,12.0,1.,12.0
1979-07-06 00:01:15.810 ,1,0,0.,12.0,0.,12.0,0.,12.0,0.,12.0
1979-07-06 00:01:27.810 ,1,0,2.,12.0,0.,12.0,0.,12.0,1.,12.0
1979-07-06 00:01:39.810 ,2,1,1.,12.0,0.,12.0,0.,12.0,1.,12.0
1979-07-06 00:01:51.810 ,2,1,2.,12.0,0.,12.0,0.,12.0,0.,12.0
1979-07-06 00:02:03.810 ,2,0,0.,12.0,0.,12.0,0.,12.0,1.,12.0
1979-07-06 00:02:15.810 ,2,0,4.,12.0,0.,12.0,0.,12.0,0.,12.0
1979-07-06 00:02:27.810 ,3,1,3.,12.0,0.,12.0,0.,12.0,1.,12.0
1979-07-06 00:02:39.810 ,3,1,2.,12.0,0.,12.0,0.,12.0,0.,12.0
1979-07-06 00:02:51.810 ,3,0,1.,12.0,0.,12.0,0.,12.0,1.,12.0
1979-07-06 00:03:03.810 ,3,0,0.,12.0,0.,12.0,0.,12.0,0.,12.0
1979-07-06 00:03:15.810 ,4,1,3.,12.0,0.,12.0,0.,12.0,0.,12.0
1979-07-06 00:03:27.810 ,4,1,1.,12.0,0.,12.0,0.,12.0,1.,12.0
1979-07-06 00:03:39.810 ,4,0,2.,12.0,0.,12.0,0.,12.0,0.,12.0
1979-07-06 00:03:51.810 ,4,0,2.,12.0,0.,12.0,0.,12.0,1.,12.0
1979-07-06 00:04:03.810 ,5,1,2.,12.0,0.,12.0,0.,12.0,1.,12.0
1979-07-06 00:04:15.810 ,5,1,3.,12.0,0.,12.0,0.,12.0,1.,12.0
1979-07-06 00:04:27.810 ,5,0,4.,12.0,0.,12.0,0.,12.0,0.,12.0
1979-07-06 00:04:39.810 ,5,0,1.,12.0,0.,12.0,0.,12.0,2.,12.0
1979-07-06 00:04:51.810 ,6,1,7.,12.0,0.,12.0,0.,12.0,1.,12.0
1979-07-06 00:05:03.810 ,6,1,1.,12.0,0.,12.0,0.,12.0,1.,12.0
1979-07-06 00:05:15.810 ,6,0,5.,12.0,0.,12.0,0.,12.0,2.,12.0
1979-07-06 00:05:27.810 ,6,0,3.,12.0,0.,12.0,0.,12.0,0.,12.0
1979-07-06 00:05:39.810 ,7,1,1.,12.0,0.,12.0,0.,12.0,3.,12.0
1979-07-06 00:05:51.810 ,7,1,0.,12.0,0.,12.0,0.,12.0,0.,12.0
1979-07-06 00:06:03.810 ,7,0,0.,12.0,0.,12.0,0.,12.0,0.,12.0
1979-07-06 00:06:15.810 ,7,0,0.,12.0,0.,12.0,0.,12.0,0.,12.0
1979-07-06 00:06:27.810 ,7,1,0.,12.0,0.,12.0,0.,12.0,0.,12.0
1979-07-06 00:06:39.810 ,7,1,0.,12.0,0.,12.0,0.,12.0,0.,12.0
1979-07-06 00:06:51.810 ,7,0,0.,12.0,0.,12.0,0.,12.0,0.,12.0
1979-07-06 00:07:03.810 ,7,0,0.,12.0,0.,12.0,0.,12.0,0.,12.0
1979-07-06 00:07:15.810 ,6,1,0.,12.0,0.,12.0,0.,12.0,0.,12.0
1979-07-06 00:07:27.810 ,6,1,3.,12.0,0.,12.0,0.,12.0,0.,12.0
1979-07-06 00:07:39.810 ,6,0,1.,12.0,0.,12.0,0.,12.0,1.,12.0
1979-07-06 00:07:51.810 ,6,0,3.,12.0,0.,12.0,0.,12.0,1.,12.0
1979-07-06 00:08:03.810 ,5,1,4.,12.0,0.,12.0,0.,12.0,0.,12.0
1979-07-06 00:08:15.810 ,5,1,7.,12.0,0.,12.0,0.,12.0,3.,12.0
1979-07-06 00:08:27.810 ,5,0,3.,12.0,0.,12.0,0.,12.0,2.,12.0
1979-07-06 00:08:39.810 ,5,0,4.,12.0,0.,12.0,0.,12.0,3.,12.0
1979-07-06 00:08:51.810 ,4,1,3.,12.0,0.,12.0,0.,12.0,2.,12.0
1979-07-06 00:09:03.810 ,4,1,1.,12.0,0.,12.0,0.,12.0,3.,12.0
1979-07-06 00:09:15.810 ,4,0,4.,12.0,0.,12.0,0.,12.0,3.,12.0
1979-07-06 00:09:27.810 ,4,0,1.,12.0,0.,12.0,0.,12.0,2.,12.0
1979-07-06 00:09:39.810 ,3,1,3.,12.0,0.,12.0,0.,12.0,1.,12.0
1979-07-06 00:09:51.810 ,3,1,1.,12.0,0.,12.0,0.,12.0,2.,12.0
1979-07-06 00:10:03.810 ,3,0,1.,12.0,0.,12.0,0.,12.0,2.,12.0
1979-07-06 00:10:15.810 ,3,0,1.,12.0,0.,12.0,0.,12.0,0.,12.0
1979-07-06 00:10:27.810 ,2,1,0.,12.0,0.,12.0,0.,12.0,0.,12.0
1979-07-06 00:10:39.810 ,2,1,1.,12.0,0.,12.0,0.,12.0,1.,12.0
1979-07-06 00:10:51.810 ,2,0,1.,12.0,0.,12.0,0.,12.0,1.,12.0
1979-07-06 00:11:03.810 ,2,0,2.,12.0,0.,12.0,0.,12.0,1.,12.0
1979-07-06 00:11:15.810 ,1,1,1.,12.0,0.,12.0,0.,12.0,1.,12.0
1979-07-06 00:11:27.810 ,1,1,0.,12.0,0.,12.0,0.,12.0,0.,12.0
1979-07-06 00:11:39.810 ,1,0,2.,12.0,0.,12.0,0.,12.0,2.,12.0
1979-07-06 00:11:51.810 ,1,0,0.,12.0,0.,12.0,0.,12.0,1.,12.0
1979-07-06 00:12:03.810 ,0,1,1.,12.0,0.,12.0,0.,12.0,0.,12.0
1979-07-06 00:12:15.810 ,0,1,0.,12.0,0.,12.0,0.,12.0,0.,12.0
1979-07-06 00:12:27.810 ,0,0,0.,12.0,0.,12.0,0.,12.0,0.,12.0
1979-07-06 00:12:39.810 ,0,0,0.,12.0,0.,12.0,0.,12.0,0.,12.0
1979-07-06 00:12:51.810 ,0,1,0.,12.0,0.,12.0,0.,12.0,0.,12.0
1979-07-06 00:13:03.810 ,0,1,0.,12.0,0.,12.0,0.,12.0,1.,12.0
1979-07-06 00:13:15.810 ,0,0,1.,12.0,0.,12.0,0.,12.0,0.,12.0
1979-07-06 00:13:27.810 ,0,0,1.,12.0,0.,12.0,0.,12.0,0.,12.0
1979-07-06 00:13:39.810 ,1,1,0.,12.0,0.,12.0,0.,12.0,1.,12.0
1979-07-06 00:13:51.810 ,1,1,2.,12.0,0.,12.0,0.,12.0,0.,12.0
1979-07-06 00:14:03.810 ,1,0,0.,12.0,0.,12.0,0.,12.0,0.,12.0
1979-07-06 00:14:15.810 ,1,0,1.,12.0,0.,12.0,0.,12.0,1.,12.0
1979-07-06 00:14:27.810 ,2,1,0.,12.0,0.,12.0,0.,12.0,0.,12.0
1979-07-06 00:14:39.810 ,2,1,1.,12.0,0.,12.0,0.,12.0,0.,12.0
1979-07-06 00:14:51.810 ,2,0,0.,12.0,0.,12.0,0.,12.0,0.,12.0
1979-07-06 00:15:03.810 ,2,0,1.,12.0,0.,12.0,0.,12.0,0.,12.0
1979-07-06 00:15:15.810 ,3,1,1.,12.0,0.,12.0,0.,12.0,0.,12.0
1979-07-06 00:15:27.810 ,3,1,2.,12.0,0.,12.0,0.,12.0,1.,12.0
1979-07-06 00:15:39.810 ,3,0,0.,12.0,0.,12.0,0.,12.0,0.,12.0
1979-07-06 00:15:51.810 ,3,0,3.,12.0,0.,12.0,0.,12.0,0.,12.0
1979-07-06 00:16:03.810 ,4,1,2.,12.0,0.,12.0,0.,12.0,0.,12.0
1979-07-06 00:16:15.810 ,4,1,1.,12.0,0.,12.0,0.,12.0,1.,12.0
1979-07-06 00:16:27.810 ,4,0,1.,12.0,0.,12.0,0.,12.0,2.,12.0
1979-07-06 00:16:39.810 ,4,0,3.,12.0,0.,12.0,0.,12.0,1.,12.0
1979-07-06 00:16:51.810 ,5,1,1.,12.0,0.,12.0,0.,12.0,0.,12.0
1979-07-06 00:17:03.810 ,5,1,2.,12.0,0.,12.0,0.,12.0,0.,12.0
1979-07-06 00:17:15.810 ,5,0,2.,12.0,0.,12.0,0.,12.0,3.,12.0
1979-07-06 00:17:27.810 ,5,0,3.,12.0,0.,12.0,0.,12.0,0.,12.0
1979-07-06 00:17:39.810 ,6,1,5.,12.0,0.,12.0,0.,12.0,1.,12.0
1979-07-06 00:17:51.810 ,6,1,4.,12.0,0.,12.0,0.,12.0,2.,12.0
1979-07-06 00:18:03.810 ,6,0,1.,12.0,0.,12.0,0.,12.0,1.,12.0
1979-07-06 00:18:15.810 ,6,0,2.,12.0,0.,12.0,0.,12.0,0.,12.0
1979-07-06 00:18:27.810 ,7,0,1.,12.0,0.,12.0,0.,12.0,2.,12.0
1979-07-06 00:18:39.810 ,7,0,0.,12.0,0.,12.0,0.,12.0,0.,12.0
1979-07-06 00:18:51.810 ,7,0,0.,12.0,0.,12.0,0.,12.0,0.,12.0
1979-07-06 00:19:03.810 ,7,0,0.,12.0,0.,12.0,0.,12.0,0.,12.0
1979-07-06 00:19:15.810 ,4,1,1.,12.0,0.,12.0,0.,12.0,1.,12.0
1979-07-06 00:19:27.810 ,4,1,2.,12.0,0.,12.0,0.,12.0,1.,12.0
1979-07-06 00:19:39.810 ,0,1,2.,12.0,0.,12.0,0.,12.0,0.,12.0
1979-07-06 00:19:51.810 ,0,1,0.,12.0,0.,12.0,0.,12.0,0.,12.0
1979-07-06 00:20:03.810 ,3,1,0.,12.0,0.,12.0,0.,12.0,0.,12.0
1979-07-06 00:20:15.810 ,3,1,2.,12.0,0.,12.0,0.,12.0,0.,12.0
1979-07-06 00:20:27.810 ,7,1,2.,12.0,0.,12.0,0.,12.0,0.,12.0
1979-07-06 00:20:39.810 ,7,1,0.,12.0,0.,12.0,0.,12.0,0.,12.0
1979-07-06 00:20:51.810 ,4,1,0.,12.0,0.,12.0,0.,12.0,1.,12.0
1979-07-06 00:21:03.810 ,4,1,2.,12.0,0.,12.0,0.,12.0,0.,12.0
1979-07-06 00:21:15.810 ,0,1,2.,12.0,0.,12.0,0.,12.0,0.,12.0
1979-07-06 00:21:27.810 ,0,1,1.,12.0,0.,12.0,0.,12.0,1.,12.0
1979-07-06 00:21:39.810 ,3,1,1.,12.0,0.,12.0,0.,12.0,1.,12.0
1979-07-06 00:21:51.810 ,3,1,3.,12.0,0.,12.0,0.,12.0,1.,12.0
1979-07-06 00:22:03.810 ,7,1,3.,12.0,0.,12.0,0.,12.0,0.,12.0
1979-07-06 00:22:15.810 ,7,1,1.,12.0,0.,12.0,0.,12.0,1.,12.0
1979-07-06 00:22:27.810 ,4,1,0.,12.0,0.,12.0,0.,12.0,0.,12.0
1979-07-06 00:22:39.810 ,4,1,0.,12.0,0.,12.0,0.,12.0,0.,12.0
1979-07-06 00:22:51.810 ,0,1,0.,12.0,0.,12.0,0.,12.0,1.,12.0
1979-07-06 00:23:03.810 ,0,1,0.,12.0,0.,12.0,0.,12.0,0.,12.0
1979-07-06 00:23:15.810 ,3,1,2.,12.0,0.,12.0,0.,12.0,2.,12.0
1979-07-06 00:23:27.810 ,3,1,1.,12.0,0.,12.0,0.,12.0,0.,12.0
1979-07-06 00:23:39.810 ,7,1,1.,12.0,0.,12.0,0.,12.0,2.,12.0
1979-07-06 00:23:51.810 ,7,1,1.,12.0,0.,12.0,0.,12.0,0.,12.0
1979-07-06 00:24:03.810 ,4,1,1.,12.0,0.,12.0,0.,12.0,0.,12.0
1979-07-06 00:24:15.810 ,4,1,2.,12.0,0.,12.0,0.,12.0,0.,12.0
1979-07-06 00:24:27.810 ,0,1,1.,12.0,0.,12.0,0.,12.0,0.,12.0
1979-07-06 00:24:39.810 ,0,1,1.,12.0,0.,12.0,0.,12.0,0.,12.0
1979-07-06 00:24:51.810 ,3,1,1.,12.0,0.,12.0,0.,12.0,0.,12.0
1979-07-06 00:25:03.810 ,3,1,0.,12.0,0.,12.0,0.,12.0,0.,12.0
1979-07-06 00:25:15.810 ,7,1,4.,12.0,0.,12.0,0.,12.0,0.,12.0
1979-07-06 00:25:27.810 ,7,1,2.,12.0,0.,12.0,0.,12.0,0.,12.0
1979-07-06 00:25:39.810 ,4,1,1.,12.0,0.,12.0,0.,12.0,0.,12.0
1979-07-06 00:25:51.810 ,4,1,2.,12.0,0.,12.0,0.,12.0,1.,12.0
1979-07-06 00:26:03.810 ,0,1,1.,12.0,0.,12.0,0.,12.0,0.,12.0
1979-07-06 00:26:15.810 ,0,1,1.,12.0,0.,12.0,0.,12.0,0.,12.0
1979-07-06 00:26:27.810 ,3,1,0.,12.0,0.,12.0,0.,12.0,0.,12.0
1979-07-06 00:26:39.810 ,3,1,2.,12.0,0.,12.0,0.,12.0,0.,12.0
1979-07-06 00:26:51.810 ,7,1,0.,12.0,0.,12.0,0.,12.0,0.,12.0
1979-07-06 00:27:03.810 ,7,1,1.,12.0,0.,12.0,0.,12.0,0.,12.0
1979-07-06 00:27:15.810 ,4,1,0.,12.0,0.,12.0,0.,12.0,0.,12.0
1979-07-06 00:27:27.810 ,4,1,1.,12.0,0.,12.0,0.,12.0,0.,12.0
1979-07-06 00:27:39.810 ,0,1,0.,12.0,0.,12.0,0.,12.0,0.,12.0
1979-07-06 00:27:51.810 ,0,1,0.,12.0,0.,12.0,0.,12.0,0.,12.0
1979-07-06 00:28:03.810 ,3,1,0.,12.0,0.,12.0,0.,12.0,1.,12.0
1979-07-06 00:28:15.810 ,3,1,2.,12.0,0.,12.0,0.,12.0,0.,12.0
1979-07-06 00:28:27.810 ,7,1,0.,12.0,0.,12.0,0.,12.0,1.,12.0
1979-07-06 00:28:39.810 ,7,1,1.,12.0,0.,12.0,0.,12.0,0.,12.0
1979-07-06 00:28:51.810 ,4,1,0.,12.0,0.,12.0,0.,12.0,1.,12.0
1979-07-06 00:29:03.810 ,4,1,1.,12.0,0.,12.0,0.,12.0,0.,12.0
1979-07-06 00:29:15.810 ,0,1,0.,12.0,0.,12.0,0.,12.0,0.,12.0
1979-07-06 00:29:27.810 ,0,1,0.,12.0,0.,12.0,0.,12.0,0.,12.0
1979-07-06 00:29:39.810 ,0,0,0.,12.0,0.,12.0,0.,12.0,0.,12.0
1979-07-06 00:29:51.810 ,0,0,1.,12.0,0.,12.0,0.,12.0,0.,12.0
1979-07-06 00:30:03.810 ,0,0,0.,12.0,0.,12.0,0.,12.0,0.,12.0
1979-07-06 00:30:15.810 ,0,0,0.,12.0,0.,12.0,0.,12.0,0.,12.0
1979-07-06 00:30:27.810 ,5,1,0.,12.0,0.,12.0,0.,12.0,1.,12.0
1979-07-06 00:30:39.810 ,5,1,1.,12.0,0.,12.0,0.,12.0,0.,12.0
1979-07-06 00:30:51.810 ,5,0,0.,12.0,0.,12.0,0.,12.0,0.,12.0
1979-07-06 00:31:03.810 ,5,0,0.,12.0,0.,12.0,0.,12.0,0.,12.0
1979-07-06 00:31:15.810 ,4,1,0.,12.0,0.,12.0,0.,12.0,0.,12.0
1979-07-06 00:31:27.810 ,4,1,0.,12.0,0.,12.0,0.,12.0,0.,12.0
1979-07-06 00:31:39.810 ,4,0,1.,12.0,0.,12.0,0.,12.0,1.,12.0
1979-07-06 00:31:51.810 ,4,0,1.,12.0,0.,12.0,0.,12.0,0.,12.0
1979-07-06 00:32:03.810 ,3,1,0.,12.0,0.,12.0,0.,12.0,0.,12.0
1979-07-06 00:32:15.810 ,3,1,0.,12.0,0.,12.0,0.,12.0,0.,12.0
1979-07-06 00:32:27.810 ,3,0,0.,12.0,0.,12.0,0.,12.0,0.,12.0
1979-07-06 00:32:39.810 ,3,0,0.,12.0,0.,12.0,0.,12.0,0.,12.0
1979-07-06 00:32:51.810 ,2,1,0.,12.0,0.,12.0,0.,12.0,0.,12.0
1979-07-06 00:33:03.810 ,2,1,0.,12.0,0.,12.0,0.,12.0,0.,12.0
1979-07-06 00:33:15.810 ,2,0,1.,12.0,0.,12.0,0.,12.0,0.,12.0
1979-07-06 00:33:27.810 ,2,0,0.,12.0,0.,12.0,0.,12.0,0.,12.0
1979-07-06 00:33:39.810 ,1,1,0.,12.0,0.,12.0,0.,12.0,0.,12.0
1979-07-06 00:33:51.810 ,1,1,1.,12.0,0.,12.0,0.,12.0,0.,12.0
1979-07-06 00:34:03.810 ,1,0,0.,12.0,0.,12.0,0.,12.0,0.,12.0
1979-07-06 00:34:15.810 ,1,0,0.,12.0,0.,12.0,0.,12.0,0.,12.0
1979-07-06 00:34:27.810 ,0,1,0.,12.0,0.,12.0,0.,12.0,0.,12.0
1979-07-06 00:34:39.810 ,0,1,1.,12.0,0.,12.0,0.,12.0,0.,12.0
1979-07-06 00:34:51.810 ,0,0,0.,12.0,0.,12.0,0.,12.0,0.,12.0
1979-07-06 00:35:03.810 ,0,0,0.,12.0,0.,12.0,0.,12.0,0.,12.0
1979-07-06 00:35:15.810 ,0,1,0.,12.0,0.,12.0,0.,12.0,0.,12.0
1979-07-06 00:35:27.810 ,0,1,0.,12.0,0.,12.0,0.,12.0,0.,12.0
1979-07-06 00:35:39.810 ,0,0,0.,12.0,0.,12.0,0.,12.0,0.,12.0
1979-07-06 00:35:51.810 ,0,0,0.,12.0,0.,12.0,0.,12.0,0.,12.0
1979-07-06 00:36:03.810 ,1,1,0.,12.0,0.,12.0,0.,12.0,1.,12.0
1979-07-06 00:36:15.810 ,1,1,1.,12.0,0.,12.0,0.,12.0,0.,12.0
1979-07-06 00:36:27.810 ,1,0,0.,12.0,0.,12.0,0.,12.0,0.,12.0
1979-07-06 00:36:39.810 ,1,0,0.,12.0,0.,12.0,0.,12.0,0.,12.0
1979-07-06 00:36:51.810 ,2,1,0.,12.0,0.,12.0,0.,12.0,0.,12.0
1979-07-06 00:37:03.810 ,2,1,0.,12.0,0.,12.0,0.,12.0,0.,12.0
1979-07-06 00:37:15.810 ,2,0,0.,12.0,0.,12.0,0.,12.0,0.,12.0
1979-07-06 00:37:27.810 ,2,0,0.,12.0,0.,12.0,0.,12.0,0.,12.0
1979-07-06 00:37:39.810 ,3,1,0.,12.0,0.,12.0,0.,12.0,0.,12.0
1979-07-06 00:37:51.810 ,3,1,0.,12.0,0.,12.0,0.,12.0,0.,12.0
1979-07-06 00:38:03.810 ,3,0,0.,12.0,0.,12.0,0.,12.0,0.,12.0
1979-07-06 00:38:15.810 ,3,0,0.,12.0,0.,12.0,0.,12.0,0.,12.0
1979-07-06 00:38:27.810 ,4,1,0.,12.0,0.,12.0,0.,12.0,0.,12.0
1979-07-06 00:38:39.810 ,4,1,0.,12.0,0.,12.0,0.,12.0,0.,12.0
1979-07-06 00:38:51.810 ,4,0,0.,12.0,0.,12.0,0.,12.0,0.,12.0
1979-07-06 00:39:03.810 ,4,0,0.,12.0,0.,12.0,0.,12.0,0.,12.0
1979-07-06 00:39:15.810 ,5,1,1.,12.0,0.,12.0,0.,12.0,0.,12.0
1979-07-06 00:39:27.810 ,5,1,0.,12.0,0.,12.0,0.,12.0,1.,12.0
1979-07-06 00:39:39.810 ,5,0,0.,12.0,0.,12.0,0.,12.0,0.,12.0
1979-07-06 00:39:51.810 ,5,0,0.,12.0,0.,12.0,0.,12.0,1.,12.0
1979-07-06 00:40:03.810 ,6,1,0.,12.0,0.,12.0,0.,12.0,0.,12.0
1979-07-06 00:40:15.810 ,6,1,0.,12.0,0.,12.0,0.,12.0,1.,12.0
1979-07-06 00:40:27.810 ,6,0,1.,12.0,0.,12.0,0.,12.0,0.,12.0
1979-07-06 00:40:39.810 ,6,0,1.,12.0,0.,12.0,0.,12.0,0.,12.0
1979-07-06 00:40:51.810 ,7,1,0.,12.0,0.,12.0,0.,12.0,0.,12.0
1979-07-06 00:41:03.810 ,7,1,0.,12.0,0.,12.0,0.,12.0,0.,12.0
1979-07-06 00:41:15.810 ,7,0,0.,12.0,0.,12.0,0.,12.0,0.,12.0
1979-07-06 00:41:27.810 ,7,0,0.,12.0,0.,12.0,0.,12.0,0.,12.0
1979-07-06 00:41:39.810 ,7,1,0.,12.0,0.,12.0,0.,12.0,0.,12.0
1979-07-06 00:41:51.810 ,7,1,0.,12.0,0.,12.0,0.,12.0,0.,12.0
1979-07-06 00:42:03.810 ,7,0,0.,12.0,0.,12.0,0.,12.0,0.,12.0
1979-07-06 00:42:15.810 ,7,0,0.,12.0,0.,12.0,0.,12.0,0.,12.0
1979-07-06 00:42:27.810 ,6,1,0.,12.0,0.,12.0,0.,12.0,0.,12.0
1979-07-06 00:42:39.810 ,6,1,0.,12.0,0.,12.0,0.,12.0,0.,12.0
1979-07-06 00:42:51.810 ,6,0,0.,12.0,0.,12.0,0.,12.0,1.,12.0
1979-07-06 00:43:03.810 ,6,0,0.,12.0,0.,12.0,0.,12.0,0.,12.0
1979-07-06 00:43:15.810 ,5,1,0.,12.0,0.,12.0,0.,12.0,1.,12.0
1979-07-06 00:43:27.810 ,5,1,0.,12.0,0.,12.0,0.,12.0,1.,12.0
1979-07-06 00:43:39.810 ,5,0,3.,12.0,0.,12.0,0.,12.0,0.,12.0
1979-07-06 00:43:51.810 ,5,0,2.,12.0,0.,12.0,0.,12.0,0.,12.0
1979-07-06 00:44:03.810 ,4,1,1.,12.0,0.,12.0,0.,12.0,2.,12.0
1979-07-06 00:44:15.810 ,4,1,0.,12.0,0.,12.0,0.,12.0,0.,12.0
1979-07-06 00:44:27.810 ,4,0,0.,12.0,0.,12.0,0.,12.0,1.,12.0
1979-07-06 00:44:39.810 ,4,0,1.,12.0,0.,12.0,0.,12.0,0.,12.0
1979-07-06 00:44:51.810 ,3,1,1.,12.0,0.,12.0,0.,12.0,0.,12.0
1979-07-06 00:45:03.810 ,3,1,1.,12.0,0.,12.0,0.,12.0,0.,12.0
1979-07-06 00:45:15.810 ,3,0,0.,12.0,0.,12.0,0.,12.0,0.,12.0
1979-07-06 00:45:27.810 ,3,0,0.,12.0,0.,12.0,0.,12.0,0.,12.0
1979-07-06 00:45:39.810 ,2,1,1.,12.0,0.,12.0,0.,12.0,1.,12.0
1979-07-06 00:45:51.810 ,2,1,1.,12.0,0.,12.0,0.,12.0,1.,12.0
1979-07-06 00:46:03.810 ,2,0,1.,12.0,0.,12.0,0.,12.0,0.,12.0
1979-07-06 00:46:15.810 ,2,0,0.,12.0,0.,12.0,0.,12.0,0.,12.0
1979-07-06 00:46:27.810 ,1,1,0.,12.0,0.,12.0,0.,12.0,0.,12.0
1979-07-06 00:46:39.810 ,1,1,0.,12.0,0.,12.0,0.,12.0,0.,12.0
1979-07-06 00:46:51.810 ,1,0,0.,12.0,0.,12.0,0.,12.0,0.,12.0
1979-07-06 00:47:03.810 ,1,0,0.,12.0,0.,12.0,0.,12.0,1.,12.0
1979-07-06 00:47:15.810 ,0,1,1.,12.0,0.,12.0,0.,12.0,0.,12.0
1979-07-06 00:47:27.810 ,0,1,2.,12.0,0.,12.0,0.,12.0,0.,12.0
1979-07-06 00:47:39.810 ,0,0,0.,12.0,0.,12.0,0.,12.0,0.,12.0
1979-07-06 00:47:51.810 ,0,0,1.,12.0,0.,12.0,0.,12.0,0.,12.0
1979-07-06 00:48:03.810 ,0,1,0.,12.0,0.,12.0,0.,12.0,0.,12.0
1979-07-06 00:48:15.810 ,0,1,0.,12.0,0.,12.0,0.,12.0,0.,12.0
1979-07-06 00:48:27.810 ,0,0,1.,12.0,0.,12.0,0.,12.0,0.,12.0
1979-07-06 00:48:39.810 ,0,0,0.,12.0,0.,12.0,0.,12.0,0.,12.0
1979-07-06 00:48:51.810 ,1,1,0.,12.0,0.,12.0,0.,12.0,0.,12.0
1979-07-06 00:49:03.810 ,1,1,0.,12.0,0.,12.0,0.,12.0,0.,12.0
1979-07-06 00:49:15.810 ,1,0,0.,12.0,0.,12.0,0.,12.0,0.,12.0
1979-07-06 00:49:27.810 ,1,0,0.,12.0,0.,12.0,0.,12.0,0.,12.0
1979-07-06 00:49:39.810 ,2,1,0.,12.0,0.,12.0,0.,12.0,0.,12.0
1979-07-06 00:49:51.810 ,2,1,0.,12.0,0.,12.0,0.,12.0,0.,12.0
1979-07-06 00:50:03.810 ,2,0,0.,12.0,0.,12.0,0.,12.0,0.,12.0
1979-07-06 00:50:15.810 ,2,0,0.,12.0,0.,12.0,0.,12.0,0.,12.0
1979-07-06 00:50:27.810 ,3,1,0.,12.0,0.,12.0,0.,12.0,0.,12.0
1979-07-06 00:50:39.810 ,3,1,0.,12.0,0.,12.0,0.,12.0,0.,12.0
1979-07-06 00:50:51.810 ,3,0,0.,12.0,0.,12.0,0.,12.0,0.,12.0
1979-07-06 00:51:03.810 ,3,0,0.,12.0,0.,12.0,0.,12.0,0.,12.0
1979-07-06 00:51:15.810 ,4,1,1.,12.0,0.,12.0,0.,12.0,0.,12.0
1979-07-06 00:51:27.810 ,4,1,0.,12.0,0.,12.0,0.,12.0,0.,12.0
1979-07-06 00:51:39.810 ,4,0,0.,12.0,0.,12.0,0.,12.0,0.,12.0
1979-07-06 00:51:51.810 ,4,0,2.,12.0,0.,12.0,0.,12.0,0.,12.0
1979-07-06 00:52:03.810 ,5,1,1.,12.0,0.,12.0,0.,12.0,1.,12.0
1979-07-06 00:52:15.810 ,5,1,1.,12.0,0.,12.0,0.,12.0,0.,12.0
1979-07-06 00:52:27.810 ,5,0,0.,12.0,0.,12.0,0.,12.0,0.,12.0
1979-07-06 00:52:39.810 ,5,0,1.,12.0,0.,12.0,0.,12.0,0.,12.0
1979-07-06 00:52:51.810 ,6,1,0.,12.0,0.,12.0,0.,12.0,0.,12.0
1979-07-06 00:53:03.810 ,6,1,0.,12.0,0.,12.0,0.,12.0,0.,12.0
1979-07-06 00:53:15.810 ,6,0,0.,12.0,0.,12.0,0.,12.0,0.,12.0
1979-07-06 00:53:27.810 ,6,0,0.,12.0,0.,12.0,0.,12.0,0.,12.0
1979-07-06 00:53:39.810 ,7,1,0.,12.0,0.,12.0,0.,12.0,0.,12.0
1979-07-06 00:53:51.810 ,7,1,0.,12.0,0.,12.0,0.,12.0,0.,12.0
1979-07-06 00:54:03.810 ,7,0,0.,12.0,0.,12.0,0.,12.0,0.,12.0
1979-07-06 00:54:15.810 ,7,0,0.,12.0,0.,12.0,0.,12.0,0.,12.0
1979-07-06 00:54:27.810 ,7,1,0.,12.0,0.,12.0,0.,12.0,0.,12.0
1979-07-06 00:54:39.810 ,7,1,0.,12.0,0.,12.0,0.,12.0,0.,12.0
1979-07-06 00:54:51.810 ,7,0,0.,12.0,0.,12.0,0.,12.0,0.,12.0
1979-07-06 00:55:03.810 ,7,0,0.,12.0,0.,12.0,0.,12.0,0.,12.0
1979-07-06 00:55:15.810 ,6,1,0.,12.0,0.,12.0,0.,12.0,0.,12.0
1979-07-06 00:55:27.810 ,6,1,2.,12.0,0.,12.0,0.,12.0,0.,12.0
1979-07-06 00:55:39.810 ,6,0,0.,12.0,0.,12.0,0.,12.0,0.,12.0
1979-07-06 00:55:51.810 ,6,0,1.,12.0,0.,12.0,0.,12.0,0.,12.0
1979-07-06 00:56:03.810 ,5,1,0.,12.0,0.,12.0,0.,12.0,1.,12.0
1979-07-06 00:56:15.810 ,5,1,0.,12.0,0.,12.0,0.,12.0,1.,12.0
1979-07-06 00:56:27.810 ,5,0,0.,12.0,0.,12.0,0.,12.0,0.,12.0
1979-07-06 00:56:39.810 ,5,0,0.,12.0,0.,12.0,0.,12.0,1.,12.0
1979-07-06 00:56:51.810 ,4,1,0.,12.0,0.,12.0,0.,12.0,1.,12.0
1979-07-06 00:57:03.810 ,4,1,0.,12.0,0.,12.0,0.,12.0,2.,12.0
1979-07-06 00:57:15.810 ,4,0,1.,12.0,0.,12.0,0.,12.0,1.,12.0
1979-07-06 00:57:27.810 ,4,0,0.,12.0,0.,12.0,0.,12.0,0.,12.0
1979-07-06 00:57:39.810 ,3,1,0.,12.0,0.,12.0,0.,12.0,0.,12.0
1979-07-06 00:57:51.810 ,3,1,0.,12.0,0.,12.0,0.,12.0,0.,12.0
1979-07-06 00:58:03.810 ,3,0,0.,12.0,0.,12.0,0.,12.0,0.,12.0
1979-07-06 00:58:15.810 ,3,0,0.,12.0,0.,12.0,0.,12.0,0.,12.0
1979-07-06 00:58:27.810 ,2,1,2.,12.0,0.,12.0,0.,12.0,0.,12.0
1979-07-06 00:58:39.810 ,2,1,1.,12.0,0.,12.0,0.,12.0,0.,12.0
1979-07-06 00:58:51.810 ,2,0,1.,12.0,0.,12.0,0.,12.0,1.,12.0
1979-07-06 00:59:03.810 ,2,0,0.,12.0,0.,12.0,0.,12.0,0.,12.0
1979-07-06 00:59:15.810 ,1,1,0.,12.0,0.,12.0,0.,12.0,0.,12.0
1979-07-06 00:59:27.810 ,1,1,0.,12.0,0.,12.0,0.,12.0,0.,12.0
1979-07-06 00:59:39.810 ,1,0,1.,12.0,0.,12.0,0.,12.0,0.,12.0
1979-07-06 00:59:51.810 ,1,0,0.,12.0,0.,12.0,0.,12.0,0.,12.0
1979-07-06 01:00:03.810 ,0,1,0.,12.0,0.,12.0,0.,12.0,0.,12.0
1979-07-06 01:00:15.810 ,0,1,0.,12.0,0.,12.0,0.,12.0,0.,12.0
1979-07-06 01:00:27.810 ,0,0,0.,12.0,0.,12.0,0.,12.0,0.,12.0
1979-07-06 01:00:39.810 ,0,0,0.,12.0,0.,12.0,0.,12.0,0.,12.0
1979-07-06 01:00:51.810 ,0,1,0.,12.0,0.,12.0,0.,12.0,0.,12.0
1979-07-06 01:01:03.810 ,0,1,2.,12.0,0.,12.0,0.,12.0,0.,12.0
1979-07-06 01:01:15.810 ,0,0,0.,12.0,0.,12.0,0.,12.0,0.,12.0
1979-07-06 01:01:27.810 ,0,0,0.,12.0,0.,12.0,0.,12.0,0.,12.0
1979-07-06 01:01:39.810 ,1,1,0.,12.0,0.,12.0,0.,12.0,0.,12.0
1979-07-06 01:01:51.810 ,1,1,0.,12.0,0.,12.0,0.,12.0,0.,12.0
1979-07-06 01:02:03.810 ,1,0,0.,12.0,0.,12.0,0.,12.0,0.,12.0
1979-07-06 01:02:15.810 ,1,0,2.,12.0,0.,12.0,0.,12.0,0.,12.0
1979-07-06 01:02:27.810 ,2,1,0.,12.0,0.,12.0,0.,12.0,0.,12.0
1979-07-06 01:02:39.810 ,2,1,0.,12.0,0.,12.0,0.,12.0,0.,12.0
1979-07-06 01:02:51.810 ,2,0,0.,12.0,0.,12.0,0.,12.0,0.,12.0
1979-07-06 01:03:03.810 ,2,0,1.,12.0,0.,12.0,0.,12.0,1.,12.0
1979-07-06 01:03:15.810 ,3,1,0.,12.0,0.,12.0,0.,12.0,0.,12.0
1979-07-06 01:03:27.810 ,3,1,0.,12.0,0.,12.0,0.,12.0,0.,12.0
1979-07-06 01:03:39.810 ,3,0,1.,12.0,0.,12.0,0.,12.0,0.,12.0
1979-07-06 01:03:51.810 ,3,0,0.,12.0,0.,12.0,0.,12.0,0.,12.0
1979-07-06 01:04:03.810 ,4,1,0.,12.0,0.,12.0,0.,12.0,0.,12.0
1979-07-06 01:04:15.810 ,4,1,0.,12.0,0.,12.0,0.,12.0,0.,12.0
1979-07-06 01:04:27.800 ,4,0,0.,12.0,0.,12.0,0.,12.0,0.,12.0
1979-07-06 01:04:39.800 ,4,0,2.,12.0,0.,12.0,0.,12.0,0.,12.0
1979-07-06 01:04:51.800 ,5,1,0.,12.0,0.,12.0,0.,12.0,0.,12.0
1979-07-06 01:05:03.800 ,5,1,1.,12.0,0.,12.0,0.,12.0,0.,12.0
1979-07-06 01:05:15.800 ,5,0,0.,12.0,0.,12.0,0.,12.0,0.,12.0
1979-07-06 01:05:27.800 ,5,0,0.,12.0,0.,12.0,0.,12.0,0.,12.0
1979-07-06 01:05:39.800 ,6,1,1.,12.0,0.,12.0,0.,12.0,2.,12.0
1979-07-06 01:05:51.800 ,6,1,0.,12.0,0.,12.0,0.,12.0,0.,12.0
1979-07-06 01:06:03.800 ,6,0,0.,12.0,0.,12.0,0.,12.0,1.,12.0
1979-07-06 01:06:15.800 ,6,0,0.,12.0,0.,12.0,0.,12.0,0.,12.0
1979-07-06 01:06:27.800 ,7,0,0.,12.0,0.,12.0,0.,12.0,1.,12.0
1979-07-06 01:06:39.800 ,7,0,0.,12.0,0.,12.0,0.,12.0,0.,12.0
1979-07-06 01:06:51.800 ,7,0,0.,12.0,0.,12.0,0.,12.0,0.,12.0
1979-07-06 01:07:03.800 ,7,0,0.,12.0,0.,12.0,0.,12.0,0.,12.0
1979-07-06 01:07:15.800 ,4,1,0.,12.0,0.,12.0,0.,12.0,0.,12.0
1979-07-06 01:07:27.800 ,4,1,0.,12.0,0.,12.0,0.,12.0,1.,12.0
1979-07-06 01:07:39.800 ,0,1,0.,12.0,0.,12.0,0.,12.0,0.,12.0
1979-07-06 01:07:51.800 ,0,1,0.,12.0,0.,12.0,0.,12.0,0.,12.0
1979-07-06 01:08:03.800 ,0,0,0.,12.0,0.,12.0,0.,12.0,0.,12.0
1979-07-06 01:08:15.800 ,0,0,,0,,0,,0,,0
1979-07-06 01:08:27.800 ,0,0,,0,,0,,0,,0
1979-07-06 01:08:39.800 ,0,0,,0,,0,,0,,0
1979-07-06 01:09:21.200 ,0,0,,0,,0,,0,,0
1979-07-06 01:09:33.200 ,0,0,0.,12.0,0.,12.0,0.,12.0,0.,12.0
1979-07-06 01:09:39.800 ,3,1,0.,12.0,0.,12.0,0.,12.0,0.,12.0
1979-07-06 01:09:51.800 ,3,1,0.,12.0,0.,12.0,0.,12.0,0.,12.0
1979-07-06 01:10:03.800 ,7,1,0.,12.0,0.,12.0,0.,12.0,0.,12.0
1979-07-06 01:10:15.800 ,7,1,0.,12.0,0.,12.0,0.,12.0,1.,12.0
1979-07-06 01:10:27.800 ,4,1,0.,12.0,0.,12.0,0.,12.0,2.,12.0
1979-07-06 01:10:39.800 ,4,1,1.,12.0,0.,12.0,0.,12.0,0.,12.0
1979-07-06 01:10:51.800 ,0,1,0.,12.0,0.,12.0,0.,12.0,0.,12.0
1979-07-06 01:11:03.800 ,0,1,0.,12.0,0.,12.0,0.,12.0,1.,12.0
1979-07-06 01:11:15.800 ,3,1,0.,12.0,0.,12.0,0.,12.0,0.,12.0
1979-07-06 01:11:27.800 ,3,1,0.,12.0,0.,12.0,0.,12.0,0.,12.0
1979-07-06 01:11:39.800 ,7,1,0.,12.0,0.,12.0,0.,12.0,1.,12.0
1979-07-06 01:11:51.800 ,7,1,0.,12.0,0.,12.0,0.,12.0,0.,12.0
1979-07-06 01:12:03.800 ,4,1,0.,12.0,0.,12.0,0.,12.0,0.,12.0
1979-07-06 01:12:15.800 ,4,1,0.,12.0,0.,12.0,0.,12.0,1.,12.0
1979-07-06 01:12:27.800 ,0,1,1.,12.0,0.,12.0,0.,12.0,1.,12.0
1979-07-06 01:12:39.800 ,0,1,0.,12.0,0.,12.0,0.,12.0,0.,12.0
1979-07-06 01:12:51.800 ,3,1,1.,12.0,0.,12.0,0.,12.0,0.,12.0
1979-07-06 01:13:03.800 ,3,1,0.,12.0,0.,12.0,0.,12.0,0.,12.0
1979-07-06 01:13:15.800 ,7,1,0.,12.0,0.,12.0,0.,12.0,1.,12.0
1979-07-06 01:13:27.800 ,7,1,1.,12.0,0.,12.0,0.,12.0,0.,12.0
1979-07-06 01:13:39.800 ,4,1,1.,12.0,0.,12.0,0.,12.0,0.,12.0
1979-07-06 01:13:51.800 ,4,1,0.,12.0,0.,12.0,0.,12.0,1.,12.0
1979-07-06 01:14:03.800 ,0,1,0.,12.0,0.,12.0,0.,12.0,0.,12.0
1979-07-06 01:14:15.800 ,0,1,0.,12.0,0.,12.0,0.,12.0,0.,12.0
1979-07-06 01:14:27.800 ,3,1,0.,12.0,0.,12.0,0.,12.0,0.,12.0
1979-07-06 01:14:39.800 ,3,1,0.,12.0,0.,12.0,0.,12.0,0.,12.0
1979-07-06 01:14:51.800 ,7,1,1.,12.0,0.,12.0,0.,12.0,0.,12.0
1979-07-06 01:15:03.800 ,7,1,0.,12.0,0.,12.0,0.,12.0,1.,12.0
1979-07-06 01:15:15.800 ,4,1,0.,12.0,0.,12.0,0.,12.0,0.,12.0
1979-07-06 01:15:27.800 ,4,1,2.,12.0,0.,12.0,0.,12.0,0.,12.0
1979-07-06 01:15:39.800 ,0,1,1.,12.0,0.,12.0,0.,12.0,0.,12.0
1979-07-06 01:15:51.800 ,0,1,0.,12.0,0.,12.0,0.,12.0,0.,12.0
1979-07-06 01:16:03.800 ,3,1,0.,12.0,0.,12.0,0.,12.0,1.,12.0
1979-07-06 01:16:15.800 ,3,1,0.,12.0,0.,12.0,0.,12.0,0.,12.0
1979-07-06 01:16:27.800 ,7,1,2.,12.0,0.,12.0,0.,12.0,1.,12.0
1979-07-06 01:16:39.800 ,7,1,0.,12.0,0.,12.0,0.,12.0,0.,12.0
1979-07-06 01:16:51.800 ,4,1,1.,12.0,0.,12.0,0.,12.0,0.,12.0
1979-07-06 01:17:03.800 ,4,1,2.,12.0,0.,12.0,0.,12.0,0.,12.0
1979-07-06 01:17:15.800 ,0,1,0.,12.0,0.,12.0,0.,12.0,0.,12.0
1979-07-06 01:17:27.800 ,0,1,0.,12.0,0.,12.0,0.,12.0,1.,12.0
1979-07-06 01:17:39.800 ,0,0,0.,12.0,0.,12.0,0.,12.0,1.,12.0
1979-07-06 01:17:51.800 ,0,0,1.,12.0,0.,12.0,0.,12.0,0.,12.0
1979-07-06 01:18:03.800 ,0,0,1.,12.0,0.,12.0,0.,12.0,0.,12.0